CST,Max TemperatureF,Mean TemperatureF,Min TemperatureF,Max Dew PointF,MeanDew PointF,Min DewpointF,Max Humidity, Mean Humidity, Min Humidity, Max Sea Level PressureIn, Mean Sea Level PressureIn, Min Sea Level PressureIn, Max VisibilityMiles, Mean VisibilityMiles, Min VisibilityMiles, Max Wind SpeedMPH, Mean Wind SpeedMPH, Max Gust SpeedMPH,PrecipitationIn, CloudCover, Events, WindDirDegrees
2013-11-1,48,45,42,44,42,39,91,88,84,29.75,29.59,29.41,10,9,4,28,14,36,0.03,7,Rain,265
2013-11-2,47,41,35,42,37,33,93,87,75,30.15,29.95,29.75,10,8,3,15,7,18,0.00,5,,320
2013-11-3,51,40,29,41,35,27,94,80,55,30.30,30.23,30.15,10,8,0,14,6,20,0.00,1,Fog,125
2013-11-4,57,50,42,47,42,38,85,76,58,30.24,30.17,30.07,10,10,10,24,14,33,0.00,3,,166
2013-11-5,53,51,49,51,48,46,91,89,85,30.25,30.15,29.94,10,8,1,23,10,29,0.03,8,Rain,164
2013-11-6,57,46,34,54,43,29,92,88,80,30.18,29.96,29.78,10,8,2,23,16,32,0.84,6,Rain,265
2013-11-7,41,36,30,35,31,27,91,84,70,30.24,30.21,30.18,10,10,7,16,9,20,0.00,2,,267
2013-11-8,48,38,28,36,32,26,92,77,54,30.32,30.17,29.90,10,10,7,24,9,30,0.00,0,,197
2013-11-9,57,48,39,43,39,28,81,69,54,30.13,29.94,29.84,10,10,10,26,18,32,0.00,1,,254
2013-11-10,47,40,33,35,32,29,87,72,55,30.35,30.26,30.14,10,10,10,17,12,26,0.00,2,,262
2013-11-11,46,34,23,37,30,18,93,77,63,30.52,30.24,30.08,10,8,1,18,11,28,0.04,6,Rain-Snow-Thunderstorm,312
2013-11-12,31,26,20,23,19,16,85,79,67,30.70,30.63,30.53,10,10,10,14,8,17,0.00,0,,304
2013-11-13,40,29,18,26,21,15,85,71,42,30.58,30.38,30.15,10,10,10,22,11,29,0.00,0,,218
2013-11-14,49,38,26,32,27,22,86,70,45,30.15,30.01,29.92,10,10,10,20,11,26,0.00,0,,199
2013-11-15,50,40,30,37,33,27,89,77,53,29.97,29.94,29.91,10,10,10,15,9,21,0.00,1,,187
2013-11-16,59,47,35,56,48,33,92,91,87,29.92,29.73,29.57,10,4,0,29,15,39,0.19,7,Fog-Rain-Thunderstorm,169
2013-11-17,66,54,42,64,51,38,92,89,82,29.75,29.45,29.17,10,8,1,36,19,53,0.46,6,Rain-Thunderstorm,224
2013-11-18,42,38,35,37,33,30,89,79,62,30.09,29.92,29.76,10,10,10,28,19,37,0.00,2,,284
2013-11-19,38,34,29,28,26,23,88,74,58,30.35,30.29,30.25,10,10,7,12,7,,0.00,0,,139
2013-11-20,39,34,28,36,29,26,95,83,63,30.26,30.18,30.08,10,9,3,20,12,23,0.12,4,Rain-Thunderstorm,146
2013-11-21,45,41,37,42,39,36,95,91,83,30.21,30.15,30.09,10,6,3,10,6,,0.12,8,Rain,154
2013-11-22,39,32,23,38,28,19,96,84,71,30.47,30.39,30.22,10,9,2,20,11,26,0.01,5,Rain,326
2013-11-23,23,17,11,18,9,3,81,65,48,30.70,30.57,30.43,10,10,5,22,12,30,0.00,2,Snow,321
2013-11-24,24,17,10,10,6,3,74,57,39,30.70,30.54,30.35,10,10,10,16,8,21,0.00,0,,236
2013-11-25,30,24,18,27,19,10,91,76,52,30.34,30.15,30.06,10,9,0,21,14,29,0.00,6,Snow,222
2013-11-26,31,22,13,26,20,3,88,77,56,30.18,30.07,30.02,10,10,4,20,10,29,0.00,7,Snow,297
2013-11-27,23,17,11,15,10,2,80,66,52,30.24,30.21,30.16,10,10,10,14,10,20,0.00,2,,306
2013-11-28,30,24,17,16,14,11,82,68,53,30.49,30.27,30.16,10,10,10,15,8,17,0.00,3,,259
2013-11-29,32,22,12,21,15,9,90,70,45,30.61,30.51,30.37,10,10,7,15,4,,0.00,0,,144
2013-11-30,47,35,23,30,26,20,87,74,50,30.37,30.16,30.04,10,10,7,15,11,18,0.00,0,,196